Theta_e
298 298 297 297 297 296 296 296 296 295 295 295 295 295 295 295 295 295 295 294 294 293 293 293 292 292 291 291 291 291 290 290 290 290 290 290 290 290 290 289 289 289
298 297 297 296 296 296 295 295 295 295 295 295 295 295 295 294 294 294 294 293 293 292 292 291 291 291 290 290 290 290 289 289 289 289 289 289 289 289 289 289 288 288
297 296 296 296 295 295 295 295 294 294 294 294 294 294 294 293 293 293 292 292 291 291 290 290 290 290 289 289 289 289 289 289 288 288 288 288 288 288 288 288 288 288
296 296 296 295 295 294 294 294 294 294 293 293 293 293 292 292 292 291 291 291 290 290 290 289 289 289 289 288 288 288 288 287 287 287 287 287 287 287 287 287 287 287
296 295 295 295 294 294 293 293 293 292 292 292 292 291 291 291 290 290 290 290 289 289 289 288 288 288 288 287 287 286 286 286 286 285 285 285 285 285 285 285 285 285
295 295 294 294 293 293 292 292 291 291 291 291 290 290 290 289 289 289 289 289 288 288 288 287 287 287 286 286 285 285 285 284 284 284 284 284 283 283 283 283 283 284
294 294 293 293 292 291 291 290 290 290 290 290 289 289 289 289 288 288 288 288 287 287 286 286 286 285 285 285 284 284 284 283 283 283 283 282 282 282 282 282 282 282
293 293 292 291 291 290 290 289 289 289 289 289 289 288 288 288 288 287 287 286 286 286 285 285 285 284 284 284 283 283 283 282 282 282 282 282 281 281 281 281 281 281
291 291 291 290 290 289 289 289 289 288 288 288 288 287 287 287 287 286 286 286 285 285 284 284 284 284 283 283 283 282 282 282 281 281 281 281 281 281 281 281 281 281
290 290 290 289 289 289 288 288 288 288 287 287 286 286 286 286 285 285 285 285 284 284 284 283 283 283 283 282 282 282 282 281 281 281 281 280 280 280 280 280 280 280
289 289 289 289 288 288 287 287 287 286 286 285 285 285 285 285 284 284 284 284 284 283 283 283 283 282 282 282 281 281 281 281 281 280 280 280 279 279 279 279 279 279
289 288 288 288 287 286 286 286 285 285 284 284 284 284 284 284 284 283 283 283 283 283 283 282 282 282 282 281 281 281 280 280 280 280 279 279 279 278 278 278 278 278
288 288 287 286 285 285 285 284 284 283 283 283 283 283 283 283 283 283 283 283 283 282 282 282 282 281 281 281 280 280 280 279 279 279 279 279 278 278 278 277 277 277
287 286 285 285 284 284 284 283 283 283 282 283 283 282 282 282 282 282 282 282 282 282 282 281 281 280 280 280 279 279 279 279 279 278 278 278 278 278 278 277 277 276
286 285 284 284 283 283 283 282 282 282 282 282 282 282 282 282 282 282 282 282 281 281 281 280 280 279 279 279 278 278 278 278 278 278 278 278 278 278 278 277 277 276
285 284 283 283 282 282 282 282 282 282 282 282 281 281 281 281 281 281 281 281 280 280 280 279 279 279 278 278 278 278 278 278 278 278 278 278 278 277 277 277 277 277
284 283 282 282 282 282 282 282 281 281 281 281 281 281 281 281 281 281 280 280 280 279 279 279 278 278 278 278 278 277 277 277 277 277 277 277 277 276 276 276 276 276
283 282 282 282 282 281 281 281 281 280 280 280 280 280 280 280 280 280 280 279 279 279 279 279 278 278 278 278 278 277 277 277 277 277 276 276 276 275 275 275 275 275
282 281 281 281 281 281 280 280 280 280 280 280 280 280 280 280 280 280 280 279 279 279 279 279 278 278 278 278 278 277 277 276 276 276 276 275 275 275 274 274 274 274
281 281 281 281 280 280 280 280 280 280 280 280 280 280 280 280 280 280 280 279 279 279 279 279 278 278 278 278 278 277 276 276 276 276 275 275 275 275 274 274 274 273
281 280 280 280 280 279 280 280 280 280 280 280 280 280 280 280 280 280 279 279 279 278 278 278 278 278 278 277 277 277 276 276 276 275 275 275 275 275 274 274 274 273
280 280 279 279 279 279 279 280 280 280 280 280 280 280 280 280 280 279 279 278 278 278 278 278 278 277 277 277 276 276 275 275 275 275 275 275 275 275 274 274 274 273
279 279 279 279 279 279 279 279 279 280 280 280 280 280 280 279 279 278 278 278 278 278 278 278 277 277 276 276 275 275 275 274 274 275 275 275 275 274 274 274 273 273
279 279 279 279 279 279 279 279 279 280 280 280 280 280 279 279 278 278 278 278 278 277 277 277 277 276 275 275 274 274 274 274 274 274 274 274 274 274 273 273 273 272
279 279 279 279 279 279 279 279 279 279 279 279 279 279 278 278 278 278 278 277 277 277 276 276 276 275 274 274 274 273 273 273 273 273 273 273 273 273 273 273 272 271
279 279 279 279 279 279 279 279 279 279 279 278 278 278 278 277 277 277 277 277 276 276 276 275 275 274 274 273 273 273 273 272 272 272 272 272 272 272 272 272 272 271
Wind_Speed
12 10 8 8 7 7 6 5 4 3 2 3 4 5 6 6 7 7 8 8 9 9 10 10 11 11 12 12 12 13 13 13 14 14 14 14 14 14 15 15 15 15
12 11 9 9 8 7 6 5 4 4 3 4 5 5 5 5 6 6 7 7 8 8 9 10 10 11 11 11 12 12 12 13 13 14 14 14 14 14 14 15 15 15
12 11 10 9 8 7 6 5 4 4 4 4 4 4 4 4 5 5 6 7 7 8 8 9 10 10 11 11 12 12 13 13 14 14 14 14 15 15 16 16 16 16
13 12 11 9 8 7 6 5 5 4 4 3 3 3 3 3 4 4 5 6 6 7 8 9 10 11 12 12 13 14 14 15 15 15 16 16 16 16 16 17 17 18
13 12 11 9 8 7 6 6 5 5 4 3 2 2 2 2 3 3 4 5 6 7 8 9 10 11 13 14 14 15 15 16 16 16 17 17 17 18 18 18 18 19
13 12 11 9 9 8 7 6 6 5 4 3 2 1 1 1 2 3 4 5 6 8 9 10 11 12 14 15 15 16 16 17 17 17 18 18 19 19 19 19 20 20
13 12 11 9 8 8 7 6 5 4 4 3 2 1 2 2 3 4 5 6 7 9 10 12 13 14 15 16 17 17 18 18 18 19 19 19 19 20 20 21 21 21
12 11 10 9 8 7 7 6 5 4 4 3 2 2 2 2 4 5 6 7 9 11 12 14 15 16 17 18 18 19 19 19 20 20 20 20 20 21 22 22 23 23
12 11 10 9 8 7 7 7 5 4 4 3 3 3 3 4 5 6 7 9 11 13 14 16 17 18 19 20 21 21 21 21 21 21 22 22 22 22 23 23 24 24
12 11 10 9 9 8 8 7 6 5 4 3 3 3 4 5 6 7 9 11 12 14 16 17 19 20 21 22 22 23 23 23 24 24 24 24 24 24 24 24 25 25
11 11 11 10 9 9 8 7 6 5 4 4 4 5 5 6 8 9 11 12 14 16 17 19 20 21 22 23 23 24 25 25 25 26 26 26 25 25 25 25 26 26
12 11 11 10 9 9 7 6 5 5 4 4 5 6 7 8 10 11 12 14 15 17 18 20 21 22 23 24 25 26 26 27 27 27 27 27 27 27 26 27 27 27
12 11 11 10 9 8 7 6 5 4 4 5 6 8 9 10 11 12 14 15 17 18 19 21 22 23 25 26 26 27 28 28 29 29 29 29 29 28 28 28 28 28
12 11 11 10 9 8 6 5 5 5 6 7 8 10 11 12 13 14 15 16 18 19 20 22 23 24 26 27 27 28 28 29 29 30 31 31 31 30 29 28 28 28
13 12 11 10 9 7 6 5 6 7 8 9 10 11 12 13 14 15 16 17 19 20 21 22 24 25 26 27 28 28 29 30 30 31 32 33 33 33 32 31 29 28
13 13 12 10 8 7 6 7 8 8 9 10 11 12 13 14 15 16 18 19 20 21 22 23 23 24 25 26 27 28 30 31 32 32 33 34 35 35 35 35 34 32
14 13 12 10 8 7 7 8 9 10 10 11 12 13 14 15 16 17 19 20 21 22 22 23 23 24 25 26 27 28 30 31 32 33 34 34 35 36 36 36 36 36
14 13 11 9 8 8 8 9 10 11 11 12 13 14 15 15 17 18 19 20 21 22 23 23 24 25 26 27 28 28 29 31 32 33 34 34 35 35 36 36 37 37
13 11 10 9 8 8 9 10 11 12 12 13 14 15 15 16 17 19 20 21 22 23 24 24 24 26 27 28 29 29 30 31 32 33 34 34 35 35 35 36 37 37
12 10 9 8 9 10 11 11 12 13 14 14 15 15 16 17 18 20 21 22 23 24 24 25 25 26 28 28 29 30 30 31 32 33 34 34 35 35 36 36 37 37
11 10 9 9 10 11 12 12 13 14 15 15 15 16 17 19 20 21 22 23 24 25 25 25 26 27 28 29 30 30 31 32 33 34 34 35 35 36 36 36 36 37
11 11 11 11 12 12 13 13 14 15 15 15 16 18 19 20 21 22 23 24 24 25 26 26 27 28 29 30 31 31 31 32 33 34 35 35 35 36 36 36 36 36
12 12 12 12 13 13 13 14 14 15 16 17 18 19 20 21 22 23 23 24 25 25 27 27 27 28 29 30 30 31 32 32 33 34 34 35 35 35 35 36 36 36
12 12 13 13 13 13 14 14 15 16 17 18 20 21 21 22 23 24 24 25 25 26 27 28 28 28 29 30 30 30 32 32 33 34 34 35 34 34 34 35 35 35
13 13 13 13 13 14 14 15 16 17 19 20 21 22 23 23 24 25 25 25 25 26 27 28 29 29 29 30 30 30 31 32 33 34 35 35 35 35 35 35 35 34
13 13 14 14 14 15 15 16 18 19 20 21 22 23 23 24 24 25 26 25 26 27 28 28 29 29 29 29 29 30 30 31 32 33 34 35 35 35 36 36 35 34
Wind_Direction
181 182 182 182 183 189 195 201 212 225 256 294 315 316 313 315 314 312 312 312 313 315 317 319 320 322 323 324 325 326 326 326 326 326 327 326 324 322 320 317 314 310
179 181 183 184 186 192 199 207 219 237 268 293 305 310 308 311 312 312 315 315 317 320 320 322 324 325 326 326 327 329 328 328 328 327 327 325 323 321 318 315 312 309
179 181 185 186 188 194 203 213 228 247 269 285 295 302 302 306 314 317 320 322 323 325 326 327 327 327 327 328 328 328 328 328 328 327 327 325 323 321 319 316 313 310
180 183 186 188 191 197 206 218 230 240 250 263 274 287 295 304 317 322 324 326 326 327 327 327 327 327 326 326 327 326 326 326 326 326 325 323 321 319 316 315 312 311
182 184 187 189 193 200 208 213 217 218 222 230 238 261 284 301 318 324 325 325 325 325 324 324 323 323 323 323 323 323 323 323 322 322 321 319 317 315 313 312 311 310
184 186 187 189 193 198 202 201 202 204 204 205 210 233 257 287 313 319 320 320 321 321 320 321 321 321 321 321 320 320 319 319 319 318 316 315 313 312 311 311 310 309
184 185 185 188 189 191 192 191 195 195 193 197 202 224 241 272 303 311 317 318 320 320 320 321 320 319 319 318 318 318 317 316 316 314 313 312 311 310 309 309 308 308
182 181 180 181 183 185 187 191 196 196 197 211 223 239 257 284 303 312 319 320 321 322 321 320 319 317 317 317 316 315 314 314 313 311 310 309 308 308 307 307 307 306
177 178 178 179 181 186 192 197 202 207 214 229 242 258 277 295 307 315 320 322 321 320 319 318 317 316 315 315 314 314 313 312 311 310 309 308 308 308 307 306 305 304
177 178 180 182 185 190 197 202 208 216 228 240 250 270 287 299 311 317 319 320 319 317 316 315 314 314 313 313 312 312 311 311 311 310 310 309 309 308 307 305 304 302
179 181 182 185 188 192 197 204 212 220 231 247 264 283 296 305 314 317 318 318 316 314 314 313 312 312 311 311 311 311 311 310 310 309 309 309 309 308 306 304 303 302
184 184 186 186 187 194 198 205 216 225 242 264 282 295 304 310 315 316 316 315 314 313 312 311 311 311 310 310 310 310 310 310 309 308 308 307 307 306 305 303 302 301
187 185 186 186 189 198 203 210 223 240 263 282 293 300 305 310 313 314 315 314 313 313 312 312 311 310 310 310 310 310 309 309 308 307 307 306 305 305 304 302 301 299
187 186 187 190 195 201 209 221 241 260 276 287 295 300 304 309 312 314 315 314 314 313 312 312 311 311 310 310 310 309 308 307 307 306 306 306 305 303 302 300 298 296
188 189 192 195 199 205 217 236 255 269 280 289 295 299 304 310 313 316 315 314 313 313 311 311 310 310 310 309 309 308 307 306 306 306 305 305 304 303 302 300 298 296
192 195 196 198 203 212 228 247 262 274 285 291 296 302 307 312 315 316 315 314 313 311 310 309 309 309 307 307 307 307 307 307 306 306 305 304 304 303 302 302 300 299
196 198 198 201 210 223 240 257 270 281 289 295 299 304 309 313 315 314 313 311 310 309 309 309 309 309 308 308 308 307 307 306 305 304 303 302 301 301 300 300 300 300
197 198 201 208 221 238 254 267 278 285 291 295 299 303 307 310 311 311 310 309 309 309 310 310 311 311 309 309 308 306 305 303 302 301 300 299 298 298 298 298 299 299
198 201 207 220 236 252 264 273 281 286 289 293 295 300 305 308 309 309 309 309 309 309 310 311 312 310 309 308 306 305 304 302 300 298 297 297 296 296 297 297 298 299
202 208 218 234 248 259 268 275 280 283 286 290 295 301 306 309 311 310 310 310 310 310 311 311 312 309 307 306 305 304 303 300 299 298 297 297 297 297 297 298 298 298
208 217 230 243 254 263 270 275 278 282 287 293 299 306 310 311 312 311 311 311 311 311 312 312 311 309 307 306 304 304 303 300 299 299 298 298 298 298 298 297 296 296
216 226 239 250 258 266 271 274 279 284 290 299 305 309 311 311 311 311 311 312 312 312 312 311 311 309 307 306 305 304 303 301 300 300 299 299 298 298 297 296 295 295
225 236 247 256 262 268 272 276 283 290 297 304 307 308 310 309 309 311 312 313 313 313 311 310 310 308 306 305 305 304 303 302 301 300 299 298 298 297 296 295 295 295
234 244 253 260 265 271 276 283 290 297 302 306 307 308 309 309 310 312 313 314 314 312 310 309 308 308 307 306 305 305 303 302 301 300 299 298 298 297 296 295 294 295
242 251 259 266 272 278 285 291 297 302 304 306 307 308 310 311 312 314 314 314 313 311 310 309 308 308 307 306 305 305 303 302 301 299 299 299 298 298 297 295 295 295
251 260 267 273 280 286 292 297 301 303 304 306 307 308 310 312 313 314 313 312 311 310 309 308 308 307 307 306 305 304 303 302 300 299 299 299 299 298 297 297 296 296